This is the latest recevied weather packets stored in our database for station/object EA5JPW-10. If no packets are shown the sender has not sent any weather packets the latest 10 day(s).
| Time | Temp. | Humidity | Pressure | Rain* | Wind** | Luminosity | Snow |
|---|---|---|---|---|---|---|---|
| 1777327437 | 15° C | 42% | 995 hPa | - | - | - | - |
| 1777326536 | 15° C | 42% | 995.1 hPa | - | - | - | - |
| 1777325636 | 15.56° C | 42% | 995.2 hPa | - | - | - | - |
| 1777324736 | 16.11° C | 41% | 995.2 hPa | - | - | - | - |
| 1777323836 | 16.67° C | 41% | 995.1 hPa | - | - | - | - |
| 1777322936 | 16.67° C | 42% | 995.5 hPa | - | - | - | - |
| 1777322035 | 16.11° C | 41% | 995.5 hPa | - | - | - | - |
| 1777321134 | 16.67° C | 41% | 995.3 hPa | - | - | - | - |
| 1777320234 | 16.67° C | 42% | 995.1 hPa | - | - | - | - |
| 1777319339 | 17.22° C | 41% | 995 hPa | - | - | - | - |
| 1777318439 | 17.78° C | 41% | 994.8 hPa | - | - | - | - |
| 1777317538 | 17.78° C | 41% | 994.8 hPa | - | - | - | - |
| 1777316638 | 19.44° C | 41% | 994.3 hPa | - | - | - | - |
| 1777315737 | 18.89° C | 41% | 994.9 hPa | - | - | - | - |
| 1777314837 | 21.11° C | 39% | 994.1 hPa | - | - | - | - |
| 1777313937 | 23.89° C | 37% | 994.1 hPa | - | - | - | - |
| 1777313037 | 25.56° C | 35% | 993.9 hPa | - | - | - | - |
| 1777312137 | 27.22° C | 34% | 994.2 hPa | - | - | - | - |
| 1777311237 | 28.33° C | 34% | 994.5 hPa | - | - | - | - |
| 1777310336 | 28.33° C | 34% | 994.2 hPa | - | - | - | - |
| 1777309436 | 29.44° C | 33% | 994.2 hPa | - | - | - | - |
| 1777308536 | 30° C | 34% | 994.4 hPa | - | - | - | - |
| 1777307636 | 31.11° C | 33% | 994.7 hPa | - | - | - | - |
| 1777306736 | 31.67° C | 32% | 994.2 hPa | - | - | - | - |
| 1777305836 | 31.11° C | 32% | 994.7 hPa | - | - | - | - |
* Rain since midnight (hover to see other rain measurements)
** Current wind speed in m/s (hover to see current wind gust speed)